Location: Unspecified
(40.7945°N, 111.1337°W)
Time: 14:04:00
(UTC-06:00)

Okean 3 - Visible Passes

Search period start: 25 May 2017 00:00
Search period end: 04 June 2017 00:00
Orbit: 578 x 602 km, 82.5° (Epoch: 24 May)

Date Brightness Start Highest point End Pass type
(mag) Time Alt. Az. Time Alt. Az. Time Alt. Az.
25 May 6.7 21:21:57 10° WSW 21:24:20 15° WNW 21:26:44 10° NW visible
01 Jun 7.3 05:03:20 10° ENE 05:03:43 10° ENE 05:04:06 10° ENE visible
02 Jun 6.6 05:09:39 10° NE 05:12:11 15° ENE 05:14:42 10° ESE visible
03 Jun 6.4 05:17:14 10° NNE 05:20:37 22° ENE 05:23:57 10° SE visible
